Location: Arbon
(43.0005°N, 0.7472°E)
Time: 16:23:35
(UTC+00:00)

Tiros 1 despin weight - Pass Details

Date: 30 July 2021
Orbit: 594 x 641 km, 48.2° (Epoch: 16 September)

Event Time Altitude Azimuth Distance (km) Brightness Sun altitude
Rises 20:28:19 0° 290° (WNW) 2,933 ? -11.3°
Reaches altitude 10° 20:30:58 10° 277° (W) 2,015 ? -11.7°
Maximum altitude 20:34:45 25° 222° (SW) 1,267 ? -12.2°
Enters shadow 20:38:08 12° 170° (S) 1,875 ? -12.7°
